Location: *
(37.5724°S, 58.0067°E)
Time: 10:44:29
(UTC+00:00)

OAO 3 Rocket - Pass Details

Date: 26 September 2020
Orbit: 629 x 683 km, 35.0° (Epoch: 29 October)

Event Time Altitude Azimuth Distance (km) Brightness Sun altitude
Rises 14:56:25 0° 273° (W) 2,938 8.4 -10.3°
Reaches altitude 10° 14:58:48 10° 276° (W) 2,024 7.1 -10.8°
Maximum altitude 15:03:27 64° 357° (N) 704 3.3 -11.7°
Enters shadow 15:06:50 18° 74° (ENE) 1,551 4.4 -12.3°
